DRAGON CRS-25

Last updated on Sun Aug 21 2022 00:02:07 GMT+0000 (Coordinated Universal Time)

1 53113U 22081A 22232.69763193 .00430966 11203-4 35930-3 0 9993 2 53113 51.6431 16.6944 0142034 170.8482 203.2250 15.95320457 5706

Satellite not in orbit